Location: Campillo
(40.8621°N, 4.2488°W)
Time: 12:36:53
(UTC+00:00)

ERS-1 Rocket - Pass Details

Date: 11 May 2021
Orbit: 754 x 757 km, 98.4° (Epoch: 14 June)

Event Time Altitude Azimuth Distance (km) Brightness Sun altitude
Exits shadow 22:10:18 61° 202° (SSW) 857 3.0 -24.5°
Maximum altitude 22:11:04 73° 258° (WSW) 792 3.0 -24.5°
Drops below altitude 10° 22:16:06 10° 343° (NNW) 2,289 6.4 -25.0°
Sets 22:18:25 0° 345° (NNW) 3,219 7.5 -25.3°
